| time (UTC) | temp F | wind direction | speed MPH | gust MPH | rain 1hr in | rain 24hr in | rain mn in | humidity % | barometer mb |
| 20260504050347 | 68 | 34 | 2.0 | 3.0 | 0.00 | 0.00 | 0.00 | 33 | 1010.7 |
| 20260504045844 | 69 | 23 | 2.0 | 3.0 | 0.00 | 0.00 | 0.00 | 32 | 1010.7 |
| 20260504045343 | 68 | 8 | 1.0 | 2.0 | 0.00 | 0.00 | 0.00 | 32 | 1010.7 |
| 20260504044841 | 68 | 22 | 3.0 | 3.0 | 0.00 | 0.00 | 0.00 | 32 | 1010.5 |
| 20260504044338 | 68 | 335 | 2.0 | 2.0 | 0.00 | 0.00 | 0.00 | 34 | 1010.5 |
| 20260504043835 | 68 | 322 | 3.0 | 3.0 | 0.00 | 0.00 | 0.00 | 32 | 1010.7 |
| 20260504043332 | 68 | 353 | 2.0 | 3.0 | 0.00 | 0.00 | 0.00 | 33 | 1010.7 |
| 20260504042830 | 68 | 328 | 3.0 | 4.0 | 0.00 | 0.00 | 0.00 | 32 | 1010.4 |
| 20260504042326 | 68 | 322 | 4.0 | 5.0 | 0.00 | 0.00 | 0.00 | 33 | 1010.5 |
| 20260504041822 | 67 | 340 | 2.0 | 5.0 | 0.00 | 0.00 | 0.00 | 34 | 1010.8 |
| 20260504041318 | 67 | 355 | 2.0 | 4.0 | 0.00 | 0.00 | 0.00 | 34 | 1010.5 |
| 20260504040815 | 68 | 335 | 3.0 | 4.0 | 0.00 | 0.00 | 0.00 | 34 | 1010.4 |
| 20260504040313 | 68 | 16 | 2.0 | 4.0 | 0.00 | 0.00 | 0.00 | 33 | 1010.4 |
| 20260504035808 | 69 | 346 | 2.0 | 3.0 | 0.00 | 0.00 | 0.00 | 31 | 1010.3 |
| 20260504035306 | 69 | 357 | 2.0 | 4.0 | 0.00 | 0.00 | 0.00 | 31 | 1010.3 |
| 20260504034803 | 69 | 342 | 3.0 | 4.0 | 0.00 | 0.00 | 0.00 | 32 | 1010.3 |
| 20260504034300 | 69 | 334 | 2.0 | 4.0 | 0.00 | 0.00 | 0.00 | 31 | 1010.3 |
| 20260504033757 | 70 | 342 | 2.0 | 4.0 | 0.00 | 0.00 | 0.00 | 31 | 1010.4 |
| 20260504033255 | 71 | 324 | 3.0 | 4.0 | 0.00 | 0.00 | 0.00 | 31 | 1010.4 |
| 20260504032751 | 70 | 326 | 3.0 | 5.0 | 0.00 | 0.00 | 0.00 | 32 | 1010.5 |
| 20260504032248 | 71 | 324 | 3.0 | 4.0 | 0.00 | 0.00 | 0.00 | 33 | 1010.2 |
| 20260504031745 | 71 | 328 | 3.0 | 4.0 | 0.00 | 0.00 | 0.00 | 33 | 1010.3 |
| 20260504031243 | 71 | 355 | 1.0 | 4.0 | 0.00 | 0.00 | 0.00 | 32 | 1010.5 |
| 20260504030738 | 71 | 329 | 3.0 | 4.0 | 0.00 | 0.00 | 0.00 | 30 | 1010.4 |
| 20260504030236 | 72 | 339 | 2.0 | 4.0 | 0.00 | 0.00 | 0.00 | 30 | 1010.5 |
| 20260504025732 | 72 | 336 | 2.0 | 4.0 | 0.00 | 0.00 | 0.00 | 29 | 1010.4 |
| 20260504025229 | 72 | 320 | 3.0 | 4.0 | 0.00 | 0.00 | 0.00 | 29 | 1010.8 |
| 20260504024726 | 73 | 336 | 3.0 | 4.0 | 0.00 | 0.00 | 0.00 | 29 | 1010.5 |
| 20260504024223 | 73 | 345 | 2.0 | 4.0 | 0.00 | 0.00 | 0.00 | 28 | 1010.9 |
| 20260504023720 | 73 | 357 | 1.0 | 3.0 | 0.00 | 0.00 | 0.00 | 30 | 1010.8 |
| 20260504023215 | 73 | 11 | 0.0 | 3.0 | 0.00 | 0.00 | 0.00 | 29 | 1010.8 |
| 20260504022712 | 74 | 320 | 1.0 | 2.0 | 0.00 | 0.00 | 0.00 | 30 | 1010.9 |
| 20260504022208 | 74 | 320 | 0.0 | 2.0 | 0.00 | 0.00 | 0.00 | 29 | 1010.9 |
| 20260504021706 | 75 | 326 | 2.0 | 3.0 | 0.00 | 0.00 | 0.00 | 28 | 1011.0 |
| 20260504021202 | 75 | 5 | 1.0 | 3.0 | 0.00 | 0.00 | 0.00 | 29 | 1010.8 |
| 20260504020659 | 74 | 229 | 1.0 | 2.0 | 0.00 | 0.00 | 0.00 | 31 | 1010.9 |
| 20260504020155 | 75 | 339 | 2.0 | 2.0 | 0.00 | 0.00 | 0.00 | 30 | 1011.0 |
| 20260504015652 | 75 | 263 | 0.0 | 2.0 | 0.00 | 0.00 | 0.00 | 30 | 1011.2 |
| 20260504015148 | 75 | 152 | 2.0 | 2.0 | 0.00 | 0.00 | 0.00 | 29 | 1011.1 |
| 20260504014644 | 75 | 235 | 0.0 | 3.0 | 0.00 | 0.00 | 0.00 | 31 | 1011.1 |
| 20260504014141 | 75 | 286 | 0.0 | 3.0 | 0.00 | 0.00 | 0.00 | 32 | 1011.2 |
| 20260504013634 | 75 | 354 | 1.0 | 2.0 | 0.00 | 0.00 | 0.00 | 32 | 1011.2 |
| 20260504013131 | 75 | 230 | 2.0 | 3.0 | 0.00 | 0.00 | 0.00 | 33 | 1011.2 |
| 20260504012628 | 76 | 48 | 1.0 | 2.0 | 0.00 | 0.00 | 0.00 | 32 | 1011.3 |
| 20260504012126 | 76 | 183 | 2.0 | 5.0 | 0.00 | 0.00 | 0.00 | 32 | 1011.3 |
| 20260504011622 | 76 | 286 | 2.0 | 4.0 | 0.00 | 0.00 | 0.00 | 33 | 1011.3 |
| 20260504011119 | 77 | 16 | 2.0 | 4.0 | 0.00 | 0.00 | 0.00 | 32 | 1011.5 |
| 20260504010614 | 77 | 297 | 2.0 | 5.0 | 0.00 | 0.00 | 0.00 | 33 | 1011.5 |
| 20260504010111 | 78 | 273 | 1.0 | 2.0 | 0.00 | 0.00 | 0.00 | 32 | 1011.4 |
| 20260504005608 | 79 | 293 | 0.0 | 2.0 | 0.00 | 0.00 | 0.00 | 30 | 1011.5 |
| 20260504005105 | 80 | 232 | 1.0 | 3.0 | 0.00 | 0.00 | 0.00 | 29 | 1011.7 |
| 20260504004603 | 82 | 153 | 1.0 | 4.0 | 0.00 | 0.00 | 0.00 | 29 | 1011.6 |
| 20260504004059 | 81 | 262 | 2.0 | 3.0 | 0.00 | 0.00 | 0.00 | 29 | 1011.3 |
| 20260504003554 | 81 | 211 | 2.0 | 3.0 | 0.00 | 0.00 | 0.00 | 29 | 1011.7 |
| 20260504003051 | 81 | 0 | 1.0 | 3.0 | 0.00 | 0.00 | 0.00 | 29 | 1011.7 |
| 20260504002549 | 81 | 353 | 1.0 | 2.0 | 0.00 | 0.00 | 0.00 | 31 | 1011.5 |
| 20260504002046 | 80 | 44 | 0.0 | 2.0 | 0.00 | 0.00 | 0.00 | 29 | 1011.6 |
| 20260504001544 | 80 | 116 | 2.0 | 3.0 | 0.00 | 0.00 | 0.00 | 30 | 1011.8 |
| 20260504001039 | 81 | 0 | 0.0 | 3.0 | 0.00 | 0.00 | 0.00 | 30 | 1011.7 |
| 20260504000537 | 82 | 243 | 0.0 | 4.0 | 0.00 | 0.00 | 0.00 | 28 | 1011.6 |
| 20260504000034 | 81 | 249 | 3.0 | 3.0 | 0.00 | 0.00 | 0.00 | 27 | 1011.8 |
| 20260503235533 | 81 | 204 | 2.0 | 4.0 | 0.00 | 0.00 | 0.00 | 27 | 1011.8 |
| 20260503235029 | 81 | 256 | 2.0 | 4.0 | 0.00 | 0.00 | 0.00 | 28 | 1011.8 |
| 20260503234527 | 80 | 287 | 1.0 | 4.0 | 0.00 | 0.00 | 0.00 | 28 | 1012.0 |
| 20260503234025 | 80 | 227 | 2.0 | 5.0 | 0.00 | 0.00 | 0.00 | 28 | 1012.1 |
| 20260503233521 | 80 | 304 | 2.0 | 3.0 | 0.00 | 0.00 | 0.00 | 29 | 1011.9 |
| 20260503233017 | 82 | 310 | 2.0 | 4.0 | 0.00 | 0.00 | 0.00 | 27 | 1011.9 |
| 20260503232514 | 82 | 275 | 2.0 | 3.0 | 0.00 | 0.00 | 0.00 | 27 | 1012.0 |
| 20260503232012 | 81 | 230 | 1.0 | 3.0 | 0.00 | 0.00 | 0.00 | 27 | 1012.1 |
| 20260503231510 | 82 | 237 | 3.0 | 3.0 | 0.00 | 0.00 | 0.00 | 28 | 1012.1 |
| 20260503231006 | 81 | 230 | 1.0 | 2.0 | 0.00 | 0.00 | 0.00 | 27 | 1012.2 |
| 20260503230503 | 80 | 343 | 1.0 | 3.0 | 0.00 | 0.00 | 0.00 | 28 | 1012.4 |
| 20260503230000 | 80 | 281 | 0.0 | 3.0 | 0.00 | 0.00 | 0.00 | 28 | 1012.3 |
| 20260503225456 | 81 | 327 | 1.0 | 2.0 | 0.00 | 0.00 | 0.00 | 28 | 1012.4 |
| 20260503224952 | 80 | 188 | 0.0 | 3.0 | 0.00 | 0.00 | 0.00 | 27 | 1012.4 |
| 20260503224449 | 81 | 269 | 1.0 | 2.0 | 0.00 | 0.00 | 0.00 | 29 | 1012.4 |
| 20260503223947 | 79 | 328 | 0.0 | 2.0 | 0.00 | 0.00 | 0.00 | 29 | 1012.6 |
| 20260503223445 | 79 | 248 | 0.0 | 3.0 | 0.00 | 0.00 | 0.00 | 30 | 1012.7 |
| 20260503222940 | 80 | 299 | 2.0 | 4.0 | 0.00 | 0.00 | 0.00 | 30 | 1012.7 |
| 20260503222439 | 80 | 247 | 2.0 | 3.0 | 0.00 | 0.00 | 0.00 | 30 | 1013.0 |
| 20260503221936 | 79 | 267 | 1.0 | 3.0 | 0.00 | 0.00 | 0.00 | 31 | 1012.9 |
| 20260503221434 | 78 | 334 | 2.0 | 5.0 | 0.00 | 0.00 | 0.00 | 31 | 1012.9 |
| 20260503220931 | 78 | 311 | 1.0 | 4.0 | 0.00 | 0.00 | 0.00 | 32 | 1012.9 |
| 20260503220427 | 78 | 345 | 3.0 | 4.0 | 0.00 | 0.00 | 0.00 | 33 | 1013.0 |
| 20260503215924 | 78 | 13 | 1.0 | 4.0 | 0.00 | 0.00 | 0.00 | 33 | 1013.1 |
| 20260503215421 | 78 | 268 | 2.0 | 5.0 | 0.00 | 0.00 | 0.00 | 33 | 1012.9 |
| 20260503214919 | 77 | 342 | 1.0 | 5.0 | 0.00 | 0.00 | 0.00 | 33 | 1013.0 |
| 20260503214416 | 78 | 341 | 2.0 | 4.0 | 0.00 | 0.00 | 0.00 | 33 | 1013.1 |
| 20260503213914 | 78 | 2 | 1.0 | 6.0 | 0.00 | 0.00 | 0.00 | 32 | 1013.1 |
| 20260503213411 | 78 | 297 | 1.0 | 6.0 | 0.00 | 0.00 | 0.00 | 33 | 1013.2 |
| 20260503212908 | 78 | 309 | 2.0 | 5.0 | 0.00 | 0.00 | 0.00 | 34 | 1013.1 |
| 20260503212406 | 77 | 295 | 3.0 | 4.0 | 0.00 | 0.00 | 0.00 | 36 | 1013.1 |
| 20260503211902 | 78 | 348 | 4.0 | 5.0 | 0.00 | 0.00 | 0.00 | 35 | 1013.4 |
| 20260503211359 | 76 | 343 | 0.0 | 6.0 | 0.00 | 0.00 | 0.00 | 35 | 1013.3 |
| 20260503210854 | 77 | 302 | 4.0 | 4.0 | 0.00 | 0.00 | 0.00 | 34 | 1013.3 |
| 20260503210352 | 77 | 358 | 2.0 | 6.0 | 0.00 | 0.00 | 0.00 | 35 | 1013.2 |
| 20260503205847 | 77 | 248 | 2.0 | 6.0 | 0.00 | 0.00 | 0.00 | 33 | 1013.4 |
| 20260503205344 | 77 | 336 | 5.0 | 5.0 | 0.00 | 0.00 | 0.00 | 34 | 1013.4 |
| 20260503204840 | 77 | 260 | 2.0 | 4.0 | 0.00 | 0.00 | 0.00 | 33 | 1013.4 |
| 20260503204337 | 77 | 333 | 3.0 | 6.0 | 0.00 | 0.00 | 0.00 | 34 | 1013.4 |
| 20260503203835 | 78 | 218 | 2.0 | 6.0 | 0.00 | 0.00 | 0.00 | 34 | 1013.5 |
| 20260503203332 | 77 | 329 | 4.0 | 5.0 | 0.00 | 0.00 | 0.00 | 35 | 1013.5 |
| 20260503202829 | 77 | 241 | 3.0 | 5.0 | 0.00 | 0.00 | 0.00 | 35 | 1013.5 |
| 20260503202327 | 77 | 331 | 3.0 | 5.0 | 0.00 | 0.00 | 0.00 | 35 | 1013.5 |
| 20260503201825 | 77 | 350 | 2.0 | 5.0 | 0.00 | 0.00 | 0.00 | 34 | 1013.5 |
| 20260503201321 | 77 | 143 | 0.0 | 4.0 | 0.00 | 0.00 | 0.00 | 34 | 1013.7 |
| 20260503200819 | 77 | 353 | 3.0 | 5.0 | 0.00 | 0.00 | 0.00 | 35 | 1013.6 |
| 20260503200315 | 76 | 339 | 3.0 | 5.0 | 0.00 | 0.00 | 0.00 | 36 | 1013.8 |
| 20260503195812 | 75 | 343 | 3.0 | 6.0 | 0.00 | 0.00 | 0.00 | 37 | 1013.8 |
| 20260503195309 | 75 | 281 | 1.0 | 4.0 | 0.00 | 0.00 | 0.00 | 38 | 1013.8 |
| 20260503194806 | 75 | 284 | 3.0 | 7.0 | 0.00 | 0.00 | 0.00 | 37 | 1014.0 |
| 20260503194302 | 75 | 345 | 5.0 | 6.0 | 0.00 | 0.00 | 0.00 | 38 | 1014.1 |
| 20260503193758 | 75 | 320 | 3.0 | 6.0 | 0.00 | 0.00 | 0.00 | 38 | 1014.3 |
| 20260503193254 | 75 | 213 | 1.0 | 4.0 | 0.00 | 0.00 | 0.00 | 39 | 1014.0 |
| 20260503192750 | 74 | 312 | 3.0 | 6.0 | 0.00 | 0.00 | 0.00 | 39 | 1014.2 |
| 20260503192245 | 74 | 344 | 6.0 | 6.0 | 0.00 | 0.00 | 0.00 | 40 | 1014.2 |
| 20260503191743 | 73 | 205 | 0.0 | 5.0 | 0.00 | 0.00 | 0.00 | 43 | 1014.2 |
| 20260503191239 | 72 | 4 | 2.0 | 7.0 | 0.00 | 0.00 | 0.00 | 43 | 1014.2 |
| 20260503190731 | 72 | 359 | 4.0 | 6.0 | 0.00 | 0.00 | 0.00 | 43 | 1014.2 |
| 20260503190227 | 72 | 347 | 5.0 | 7.0 | 0.00 | 0.00 | 0.00 | 42 | 1014.3 |
| 20260503185725 | 72 | 338 | 4.0 | 7.0 | 0.00 | 0.00 | 0.00 | 45 | 1014.3 |
| 20260503185221 | 72 | 336 | 4.0 | 4.0 | 0.00 | 0.00 | 0.00 | 45 | 1014.4 |
| 20260503184716 | 72 | 357 | 4.0 | 6.0 | 0.00 | 0.00 | 0.00 | 43 | 1014.2 |
| 20260503184212 | 73 | 46 | 1.0 | 5.0 | 0.00 | 0.00 | 0.00 | 43 | 1014.6 |
| 20260503183709 | 73 | 249 | 2.0 | 3.0 | 0.00 | 0.00 | 0.00 | 43 | 1014.4 |
| 20260503183206 | 73 | 5 | 1.0 | 3.0 | 0.00 | 0.00 | 0.00 | 43 | 1014.4 |
| 20260503182704 | 73 | 344 | 4.0 | 4.0 | 0.00 | 0.00 | 0.00 | 43 | 1014.4 |
| 20260503182203 | 73 | 42 | 2.0 | 3.0 | 0.00 | 0.00 | 0.00 | 44 | 1014.7 |
| 20260503181658 | 73 | 339 | 1.0 | 3.0 | 0.00 | 0.00 | 0.00 | 45 | 1014.4 |
| 20260503181155 | 72 | 0 | 2.0 | 4.0 | 0.00 | 0.00 | 0.00 | 45 | 1014.6 |
| 20260503180652 | 72 | 13 | 3.0 | 4.0 | 0.00 | 0.00 | 0.00 | 46 | 1014.7 |
| 20260503180151 | 72 | 9 | 2.0 | 3.0 | 0.00 | 0.00 | 0.00 | 46 | 1014.7 |
| 20260503175647 | 70 | 66 | 2.0 | 6.0 | 0.00 | 0.00 | 0.00 | 49 | 1014.9 |
| 20260503175144 | 70 | 9 | 2.0 | 4.0 | 0.00 | 0.00 | 0.00 | 47 | 1014.8 |
| 20260503174640 | 70 | 109 | 2.0 | 3.0 | 0.00 | 0.00 | 0.00 | 49 | 1014.9 |
| 20260503174138 | 68 | 19 | 2.0 | 3.0 | 0.00 | 0.00 | 0.00 | 52 | 1014.9 |
| 20260503173633 | 67 | 12 | 2.0 | 4.0 | 0.00 | 0.00 | 0.00 | 51 | 1014.8 |
| 20260503173130 | 67 | 92 | 2.0 | 5.0 | 0.00 | 0.00 | 0.00 | 52 | 1014.8 |
| 20260503172626 | 67 | 354 | 2.0 | 7.0 | 0.00 | 0.00 | 0.00 | 50 | 1014.9 |
| 20260503172124 | 68 | 50 | 3.0 | 5.0 | 0.00 | 0.00 | 0.00 | 49 | 1014.8 |
| 20260503171620 | 69 | 13 | 3.0 | 5.0 | 0.00 | 0.00 | 0.00 | 48 | 1014.7 |
| 20260503171117 | 68 | 351 | 4.0 | 5.0 | 0.00 | 0.00 | 0.00 | 49 | 1014.7 |
| 20260503170614 | 67 | 343 | 4.0 | 7.0 | 0.00 | 0.00 | 0.00 | 51 | 1014.8 |
| 20260503170110 | 68 | 10 | 7.0 | 10.0 | 0.00 | 0.00 | 0.00 | 49 | 1014.8 |
| 20260503151006 | 64 | 271 | 0.0 | 5.0 | 0.00 | 0.00 | 0.00 | 53 | 1015.0 |
| 20260503150502 | 64 | 8 | 6.0 | 6.0 | 0.00 | 0.00 | 0.00 | 54 | 1015.3 |
| 20260503131344 | 63 | 140 | 0.0 | 2.0 | 0.00 | 0.00 | 0.00 | 48 | 1014.9 |
| 20260503130841 | 62 | 74 | 2.0 | 2.0 | 0.00 | 0.00 | 0.00 | 48 | 1014.8 |
| 20260503130339 | 62 | 134 | 0.0 | 2.0 | 0.00 | 0.00 | 0.00 | 48 | 1014.8 |
| 20260503110733 | 64 | 149 | 2.0 | 2.0 | 0.00 | 0.00 | 0.00 | 43 | 1015.1 |
| 20260503110230 | 65 | 154 | 0.0 | 2.0 | 0.00 | 0.00 | 0.00 | 42 | 1015.4 |
| 20260503100156 | 65 | 134 | 2.0 | 4.0 | 0.00 | 0.00 | 0.00 | 42 | 1015.5 |
| 20260503090114 | 67 | 73 | 1.0 | 2.0 | 0.00 | 0.00 | 0.00 | 36 | 1015.3 |
| 20260503081550 | 66 | 4 | 2.0 | 3.0 | 0.00 | 0.00 | 0.00 | 41 | 1015.1 |
| 20260503081047 | 65 | 0 | 2.0 | 3.0 | 0.00 | 0.00 | 0.00 | 41 | 1015.3 |
| 20260503080544 | 65 | 3 | 2.0 | 4.0 | 0.00 | 0.00 | 0.00 | 43 | 1015.3 |
| 20260503072517 | 65 | 2 | 2.0 | 4.0 | 0.00 | 0.00 | 0.00 | 43 | 1015.1 |